This demonstration page uses our WeatherBlox Daily Observations layout. Learn more.

41.55636, -103.73856

Hourly Observations for January 3, 2018

Temp ( °F °C ) Dew Point ( °F °C ) Humidity (%) Winds ( mph kmh ) Pressure ( in mb ) Visibility ( mi km ) Precip ( " mm )
12:53 am 00:53 Clear 16 -8.9 5 -15 62 62 W 12 19 30.42 1030 10 16.09344 0 0
1:53 am 01:53 Clear 17 -8.3 5 -15 59 59 W 9 15 30.45 1031 10 16.09344 0 0
2:53 am 02:53 Clear 21 -6.1 5 -15 50 50 NW 9 15 30.39 1029 10 16.09344 0 0
3:53 am 03:53 Clear 20 -6.7 6 -14.4 55 55 NNW 12 19 30.42 1030 10 16.09344 0 0
4:53 am 04:53 Clear 25 -3.9 6 -14.4 44 44 NW 10 17 30.39 1029 10 16.09344 0 0
5:53 am 05:53 Clear 23 -5 5 -15 46 46 NW 9 15 30.42 1030 10 16.09344 0 0
6:53 am 06:53 Clear 18 -7.8 6 -14.4 59 59 WNW 13 20 30.42 1030 10 16.09344 0 0
7:53 am 07:53 Sunny 27 -2.8 7 -13.9 43 43 NW 14 22 30.39 1029 10 16.09344 0 0
8:53 am 08:53 Sunny 30 -1.1 10 -12.2 43 43 NW 13 20 30.39 1029 10 16.09344 0 0
9:53 am 09:53 Sunny 41 5 11 -11.7 29 29 NW 10 17 30.33 1027 10 16.09344 0 0
10:53 am 10:53 Sunny 33 0.6 14 -10 45 45 WNW 10 17 30.36 1028 10 16.09344 0 0
11:53 am 11:53 Sunny 44 6.7 17 -8.3 34 34 NW 5 7 30.27 1025 10 16.09344 0 0
12:53 pm 12:53 Sunny 46 7.8 19 -7.2 34 34 NNW 6 9 30.27 1025 10 16.09344 0 0
1:53 pm 13:53 Sunny 40 4.4 19 -7.2 43 43 Calm 30.24 1024 10 16.09344 0 0
2:53 pm 14:53 Sunny 40 4.4 18 -7.8 41 41 Calm 30.24 1024 10 16.09344 0 0
3:53 pm 15:53 Sunny 35 1.7 21 -6.1 57 57 N 5 7 30.24 1024 10 16.09344 0 0
4:53 pm 16:53 Clear 43 6.1 19 -7.2 38 38 SSE 5 7 30.21 1023 10 16.09344 0 0
5:53 pm 17:53 Clear 27 -2.8 17 -8.3 66 66 ENE 8 13 30.24 1024 10 16.09344 0 0
6:53 pm 18:53 Partly Cloudy 38 3.3 19 -7.2 46 46 E 7 11 30.24 1024 10 16.09344 0 0
7:53 pm 19:53 Mostly Clear 35 1.7 19 -7.2 52 52 S 3 6 30.21 1023 10 16.09344 0 0
8:53 pm 20:53 Mostly Cloudy 28 -2.2 19 -7.2 69 69 ENE 3 6 30.24 1024 10 16.09344 0 0
9:53 pm 21:53 Partly Cloudy 26 -3.3 18 -7.8 71 71 WNW 5 7 30.21 1023 10 16.09344 0 0
10:53 pm 22:53 Clear 29 -1.7 17 -8.3 61 61 WNW 8 13 30.24 1024 10 16.09344 0 0
11:53 pm 23:53 Partly Cloudy 21 -6.1 15 -9.4 78 78 NW 3 6 30.24 1024 10 16.09344 0 0

Powered by AerisWeather